This is the latest recevied weather packets stored in our database for station/object JA3YAI-13. If no packets are shown the sender has not sent any weather packets the latest 10 day(s).
| Time | Temp. | Humidity | Pressure | Rain* | Wind** | Luminosity | Snow |
|---|---|---|---|---|---|---|---|
| 1777932385 | 10.56° C | 92% | 1013.4 hPa | 0 mm | - | - | - |
| 1777931785 | 10° C | 95% | 1013.2 hPa | 0 mm | - | - | - |
| 1777931184 | 10° C | 96% | 1013.1 hPa | 0 mm | - | - | - |
| 1777930584 | 9.44° C | 96% | 1013.2 hPa | 0 mm | - | - | - |
| 1777929985 | 8.89° C | 96% | 1013.1 hPa | 0 mm | - | - | - |
| 1777929385 | 8.33° C | 97% | 1012.9 hPa | 0 mm | - | - | - |
| 1777928784 | 7.78° C | 97% | 1012.6 hPa | 0 mm | - | - | - |
| 1777928184 | 7.78° C | 97% | 1012.4 hPa | 0 mm | - | - | - |
| 1777927584 | 7.78° C | 97% | 1012.4 hPa | 0 mm | - | - | - |
| 1777926985 | 7.78° C | 97% | 1012.4 hPa | 0 mm | - | - | - |
| 1777926385 | 7.78° C | 97% | 1011.9 hPa | 0 mm | - | - | - |
| 1777925784 | 7.22° C | 96% | 1011.9 hPa | 0 mm | - | - | - |
| 1777925184 | 7.78° C | 96% | 1011.7 hPa | 0 mm | - | - | - |
| 1777924585 | 7.78° C | 96% | 1011.7 hPa | 0 mm | - | - | - |
| 1777923984 | 7.78° C | 96% | 1011.5 hPa | 0 mm | - | - | - |
| 1777923384 | 7.78° C | 95% | 1011.2 hPa | 0 mm | - | - | - |
| 1777922784 | 7.78° C | 95% | 1010.8 hPa | 0 mm | - | - | - |
| 1777922184 | 8.33° C | 95% | 1010.9 hPa | 0 mm | - | - | - |
| 1777921583 | 8.33° C | 94% | 1010.8 hPa | 0 mm | - | - | - |
| 1777920985 | 8.33° C | 94% | 1010.8 hPa | 0 mm | - | - | - |
| 1777920385 | 8.33° C | 94% | 1010.8 hPa | 0 mm | - | - | - |
| 1777919784 | 8.89° C | 93% | 1010.6 hPa | 0 mm | - | - | - |
| 1777919184 | 8.89° C | 92% | 1010.8 hPa | 0 mm | - | - | - |
| 1777918583 | 8.89° C | 92% | 1010.5 hPa | 0 mm | - | - | - |
| 1777917985 | 9.44° C | 91% | 1010.6 hPa | 0 mm | - | - | - |
* Rain latest hour (hover to see other rain measurements)
** Current wind speed in m/s (hover to see current wind gust speed)